sat.trackr.live / text

‹ back to catalog

STARLINK-2226

NORAD 48010 · 2021-024AK

PAYLOAD ACTIVE UNKNOWN

§ Identity

Operator
Country
US
Launch date
2021-03-24
Launch site
AFETR
Launch vehicle
Mass (kg)
RCS (m²)

Purposes: comms

External: N2YO · Heavens-Above · Gunter

§ Orbital elements

Epoch: 2026-09-19T05:56:35.782368Z

Period
94.01 min
Inclination
53.1600°
Eccentricity
0.0001400
Mean motion
15.31723018 rev/d
Perigee alt
469.7 km
Apogee alt
471.6 km
Semi-major
6,848.8 km
B*
6.5279e-5
RAAN
151.8892°
Arg perigee
96.5634°
Mean anomaly
263.5527°
Rev number
30,422

§ Raw data

STARLINK-22261 48010U 21024AK  26262.24763637  .00001662  00000+0  65279-4 0  99952 48010  53.1600 151.8892 0001400  96.5634 263.5527 15.31723018304224

JSON: /api/v1/satellites/48010 · /tle

For live sub-satellite position, see the globe view (requires WebGL).

§ Visibility from observer

Set your observer location to see the next 7 days of passes ≥ 10°. The values pass through the URL so the page stays shareable.

No JS? Fill the form by hand. The geolocation button needs JavaScript.